GW3329 Weather Reports


Display with metric or nautical units.
time (UTC)temp
F
wind
direction
speed
MPH
gust
MPH
rain 1hr
in
rain 24hr
in
rain mn
in
humidity
%
barometer
mb
20260831231114 81 202 3.0 7.0 0.00 0.00 0.00 59 1016.5
20260831230610 81 223 3.0 4.0 0.00 0.00 0.00 59 1016.6
20260831230109 81 110 0.0 2.0 0.00 0.00 0.00 61 1016.8
20260831225604 81 135 0.0 6.0 0.00 0.00 0.00 61 1016.4
20260831225104 82 159 1.0 2.0 0.00 0.00 0.00 59 1016.6
20260831224600 81 89 2.0 2.0 0.00 0.00 0.00 61 1016.8
20260831224055 82 62 2.0 3.0 0.00 0.00 0.00 61 1016.6
20260831223551 82 149 4.0 4.0 0.00 0.00 0.00 60 1016.7
20260831223047 82 283 1.0 4.0 0.00 0.00 0.00 61 1016.7
20260831222543 82 28 3.0 7.0 0.00 0.00 0.00 61 1016.7
20260831222042 82 38 2.0 3.0 0.00 0.00 0.00 60 1016.7
20260831221538 82 219 4.0 7.0 0.00 0.00 0.00 61 1016.9
20260831221033 83 344 3.0 6.0 0.00 0.00 0.00 59 1017.0
20260831220528 83 165 0.0 8.0 0.00 0.00 0.00 60 1016.8
20260831220024 82 269 1.0 3.0 0.00 0.00 0.00 61 1017.2
20260831215519 82 96 1.0 10.0 0.00 0.00 0.00 62 1017.1
20260831215015 82 163 3.0 6.0 0.00 0.00 0.00 60 1017.0
20260831214513 82 267 5.0 8.0 0.00 0.00 0.00 60 1017.1
20260831214008 82 109 1.0 3.0 0.00 0.00 0.00 61 1017.2
20260831213504 83 210 2.0 6.0 0.00 0.00 0.00 61 1017.2
20260831213004 83 272 5.0 7.0 0.00 0.00 0.00 60 1017.3
20260831212500 82 130 1.0 4.0 0.00 0.00 0.00 62 1017.3
20260831211955 81 84 1.0 2.0 0.00 0.00 0.00 63 1017.2
20260831211450 83 69 1.0 6.0 0.00 0.00 0.00 62 1017.2
20260831210949 83 234 4.0 6.0 0.00 0.00 0.00 61 1017.3
20260831210444 83 227 4.0 6.0 0.00 0.00 0.00 61 1017.1
20260831205940 82 278 6.0 7.0 0.00 0.00 0.00 61 1017.6
20260831205435 82 166 3.0 7.0 0.00 0.00 0.00 61 1017.2
20260831204930 82 180 2.0 4.0 0.00 0.00 0.00 61 1017.5
20260831204430 82 161 1.0 6.0 0.00 0.00 0.00 62 1017.2
20260831203923 82 318 2.0 3.0 0.00 0.00 0.00 63 1017.3
20260831203418 82 292 5.0 8.0 0.00 0.00 0.00 62 1017.7
20260831202916 82 95 2.0 4.0 0.00 0.00 0.00 62 1017.3
20260831202411 82 50 2.0 3.0 0.00 0.00 0.00 63 1017.4
20260831201906 82 31 1.0 4.0 0.00 0.00 0.00 63 1017.5
20260831201404 82 205 4.0 6.0 0.00 0.00 0.00 62 1017.3
20260831200901 82 181 2.0 3.0 0.00 0.00 0.00 63 1017.4
20260831200355 82 281 4.0 6.0 0.00 0.00 0.00 62 1017.6
20260831195849 82 203 1.0 3.0 0.00 0.00 0.00 63 1017.6
20260831195345 82 38 3.0 6.0 0.00 0.00 0.00 63 1017.5
20260831194841 81 197 2.0 4.0 0.00 0.00 0.00 64 1017.5
20260831194336 81 44 1.0 4.0 0.00 0.00 0.00 64 1017.8
20260831193835 82 208 2.0 4.0 0.00 0.00 0.00 63 1017.6
20260831193330 81 324 2.0 3.0 0.00 0.00 0.00 63 1017.7
20260831192826 81 265 5.0 9.0 0.00 0.00 0.00 63 1017.8
20260831192320 81 337 4.0 7.0 0.00 0.00 0.00 63 1017.8
20260831191816 81 260 2.0 4.0 0.00 0.00 0.00 63 1018.1
20260831191312 81 69 2.0 4.0 0.00 0.00 0.00 62 1017.9
20260831190808 82 261 5.0 8.0 0.00 0.00 0.00 62 1017.8
20260831190308 82 144 1.0 4.0 0.00 0.00 0.00 61 1018.0
20260831185807 82 256 4.0 8.0 0.00 0.00 0.00 61 1017.9
20260831185306 82 160 2.0 3.0 0.00 0.00 0.00 61 1018.0
20260831184802 82 146 2.0 4.0 0.00 0.00 0.00 60 1017.8
20260831184258 82 291 2.0 4.0 0.00 0.00 0.00 59 1018.0
20260831183753 81 82 1.0 2.0 0.00 0.00 0.00 60 1017.9
20260831183252 81 283 2.0 3.0 0.00 0.00 0.00 59 1018.1
20260831182751 81 223 2.0 2.0 0.00 0.00 0.00 59 1018.0
20260831182246 81 240 1.0 3.0 0.00 0.00 0.00 60 1017.8
20260831181742 81 240 4.0 6.0 0.00 0.00 0.00 60 1017.6
20260831181237 81 297 6.0 8.0 0.00 0.00 0.00 60 1017.8
20260831180737 80 230 4.0 8.0 0.00 0.00 0.00 60 1018.0
20260831180232 81 203 4.0 7.0 0.00 0.00 0.00 59 1017.9
20260831175731 82 282 2.0 4.0 0.00 0.00 0.00 59 1017.6
20260831175228 82 271 2.0 3.0 0.00 0.00 0.00 60 1017.7
20260831174722 81 142 1.0 3.0 0.00 0.00 0.00 59 1017.7
20260831174218 81 305 2.0 4.0 0.00 0.00 0.00 60 1017.8
20260831173717 81 0 1.0 1.0 0.00 0.00 0.00 61 1017.8
20260831173207 81 295 2.0 3.0 0.00 0.00 0.00 61 1017.8
20260831172706 81 219 2.0 4.0 0.00 0.00 0.00 61 1017.8
20260831172202 80 15 2.0 2.0 0.00 0.00 0.00 63 1017.8
20260831171656 79 180 2.0 3.0 0.00 0.00 0.00 64 1017.7
20260831171154 79 147 1.0 4.0 0.00 0.00 0.00 63 1017.7
20260831170650 79 271 3.0 4.0 0.00 0.00 0.00 64 1017.7
20260831170147 78 223 1.0 6.0 0.00 0.00 0.00 65 1017.7
20260831165642 78 191 1.0 3.0 0.00 0.00 0.00 65 1017.7
20260831165138 77 259 2.0 3.0 0.00 0.00 0.00 67 1017.5
20260831164634 77 241 1.0 2.0 0.00 0.00 0.00 67 1017.7
20260831164130 78 263 4.0 6.0 0.00 0.00 0.00 67 1017.6
20260831163625 77 43 1.0 1.0 0.00 0.00 0.00 69 1017.5
20260831163121 77 39 1.0 3.0 0.00 0.00 0.00 69 1017.5
20260831162620 76 225 2.0 3.0 0.00 0.00 0.00 69 1017.3
20260831162117 75 114 0.0 1.0 0.00 0.00 0.00 73 1017.4
20260831161614 75 226 2.0 4.0 0.00 0.00 0.00 71 1017.6
20260831161110 75 304 1.0 2.0 0.00 0.00 0.00 73 1017.5
20260831160609 75 134 0.0 1.0 0.00 0.00 0.00 73 1017.5
20260831160105 74 117 0.0 1.0 0.00 0.00 0.00 74 1017.6
20260831155559 74 143 1.0 1.0 0.00 0.00 0.00 75 1017.5
20260831155054 73 135 0.0 1.0 0.00 0.00 0.00 76 1017.4
20260831154550 73 81 1.0 3.0 0.00 0.00 0.00 76 1017.4
20260831154050 72 143 0.0 1.0 0.00 0.00 0.00 77 1017.5
20260831153544 72 129 0.0 1.0 0.00 0.00 0.00 77 1017.3
20260831153041 72 18 0.0 0.0 0.00 0.00 0.00 77 1017.4
20260831152536 71 147 0.0 0.0 0.00 0.00 0.00 79 1017.3
20260831152032 70 153 1.0 2.0 0.00 0.00 0.00 81 1017.3
20260831151531 70 141 0.0 0.0 0.00 0.00 0.00 80 1017.2
20260831151031 70 141 0.0 0.0 0.00 0.00 0.00 82 1017.2
20260831150520 69 141 0.0 0.0 0.00 0.00 0.00 83 1017.2
20260831150017 69 139 0.0 0.0 0.00 0.00 0.00 84 1017.2
20260831145511 68 140 0.0 0.0 0.00 0.00 0.00 85 1017.1
20260831145007 67 140 0.0 0.0 0.00 0.00 0.00 87 1017.4
20260831144503 67 136 0.0 0.0 0.00 0.00 0.00 89 1017.0
20260831143957 66 133 0.0 0.0 0.00 0.00 0.00 93 1017.2
20260831143446 65 131 0.0 0.0 0.00 0.00 0.00 97 1017.1
20260831142942 64 128 0.0 0.0 0.00 0.00 0.00 99 1017.0
20260831142438 63 132 0.0 0.0 0.00 0.00 0.00 99 1016.9
20260831141932 62 147 0.0 0.0 0.00 0.00 0.00 99 1017.0
20260831141426 61 145 0.0 0.0 0.00 0.00 0.00 99 1016.8
20260831140921 61 145 0.0 0.0 0.00 0.00 0.00 99 1016.8
20260831140416 60 151 0.0 0.0 0.00 0.00 0.00 99 1016.8
20260831135915 59 153 0.0 0.0 0.00 0.00 0.00 99 1016.5
20260831135414 59 154 0.0 0.0 0.00 0.00 0.00 99 1016.6
20260831134909 59 155 0.0 0.0 0.00 0.00 0.00 99 1016.5
20260831134401 59 154 0.0 0.0 0.00 0.00 0.00 99 1016.5
20260831133859 59 154 0.0 0.0 0.00 0.00 0.00 99 1016.4
20260831133354 58 154 0.0 0.0 0.00 0.00 0.00 99 1016.2
20260831132849 59 155 0.0 0.0 0.00 0.00 0.00 99 1016.5
20260831132339 59 162 0.0 0.0 0.00 0.00 0.00 99 1016.4
20260831131838 59 160 0.0 0.0 0.00 0.00 0.00 99 1016.4
20260831131334 59 160 0.0 0.0 0.00 0.00 0.00 99 1016.4
20260831130829 59 160 0.0 0.0 0.00 0.00 0.00 99 1016.5
20260831130325 59 168 0.0 0.0 0.00 0.00 0.00 99 1016.4
20260831125824 58 166 0.0 0.0 0.00 0.00 0.00 98 1016.5
20260831125320 58 157 0.0 0.0 0.00 0.00 0.00 98 1016.5
20260831124819 59 148 0.0 0.0 0.00 0.00 0.00 98 1016.3
20260831124316 59 148 0.0 0.0 0.00 0.00 0.00 98 1016.4
20260831123815 59 148 0.0 0.0 0.00 0.00 0.00 98 1016.4
20260831123314 59 147 0.0 0.0 0.00 0.00 0.00 98 1016.5
20260831122809 59 155 0.0 0.0 0.00 0.00 0.00 98 1016.5
20260831122306 59 164 0.0 0.0 0.00 0.00 0.00 98 1016.3
20260831121759 59 156 0.0 0.0 0.00 0.00 0.00 98 1016.4
20260831121255 60 160 0.0 0.0 0.00 0.00 0.00 98 1016.4
20260831120750 60 160 0.0 0.0 0.00 0.00 0.00 98 1016.3
20260831120245 60 161 0.0 0.0 0.00 0.00 0.00 98 1016.3
20260831115740 60 169 0.0 0.0 0.00 0.00 0.00 98 1016.1
20260831115236 60 165 0.0 0.0 0.00 0.00 0.00 98 1016.1
20260831114735 60 189 0.0 0.0 0.00 0.00 0.00 97 1016.1
20260831114235 59 173 0.0 0.0 0.00 0.00 0.00 97 1016.1
20260831113730 60 181 0.0 0.0 0.00 0.00 0.00 97 1016.5
20260831113224 60 162 0.0 0.0 0.00 0.00 0.00 97 1016.1
20260831112718 59 161 0.0 0.0 0.00 0.00 0.00 97 1016.4
20260831112214 60 153 0.0 0.0 0.00 0.00 0.00 97 1016.4
20260831111709 60 160 0.0 0.0 0.00 0.00 0.00 97 1016.3
20260831111206 60 158 0.0 0.0 0.00 0.00 0.00 97 1016.4
20260831110701 60 159 0.0 0.0 0.00 0.00 0.00 97 1016.4
20260831110156 60 158 0.0 0.0 0.00 0.00 0.00 96 1016.1
20260831105655 60 158 0.0 0.0 0.00 0.00 0.00 96 1016.5
20260831105151 61 158 0.0 0.0 0.00 0.00 0.00 96 1016.3
20260831104645 61 159 0.0 0.0 0.00 0.00 0.00 96 1016.4
20260831104142 61 166 0.0 0.0 0.00 0.00 0.00 96 1016.6
20260831103637 61 156 0.0 0.0 0.00 0.00 0.00 95 1016.4
20260831103133 61 156 0.0 0.0 0.00 0.00 0.00 95 1016.5
20260831102632 61 158 0.0 0.0 0.00 0.00 0.00 95 1016.5
20260831102132 61 138 0.0 0.0 0.00 0.00 0.00 95 1016.5
20260831101633 61 149 0.0 0.0 0.00 0.00 0.00 95 1016.4
20260831101128 61 175 0.0 0.0 0.00 0.00 0.00 95 1016.3
20260831100624 62 177 0.0 0.0 0.00 0.00 0.00 95 1016.1
20260831100120 62 218 0.0 0.0 0.00 0.00 0.00 95 1016.5
20260831095618 62 185 0.0 0.0 0.00 0.00 0.00 95 1016.2
20260831095113 62 179 0.0 0.0 0.00 0.00 0.00 95 1016.4
20260831094609 62 175 0.0 0.0 0.00 0.00 0.00 95 1016.3
20260831094105 62 159 0.0 0.0 0.00 0.00 0.00 94 1015.9
20260831093600 62 160 0.0 0.0 0.00 0.00 0.00 94 1016.1
20260831093056 62 171 0.0 0.0 0.00 0.00 0.00 94 1016.3
20260831092552 62 164 0.0 0.0 0.00 0.00 0.00 94 1016.1
20260831092048 62 179 0.0 0.0 0.00 0.00 0.00 94 1016.2
20260831091548 62 162 0.0 0.0 0.00 0.00 0.00 93 1016.1
20260831091043 62 179 0.0 0.0 0.00 0.00 0.00 93 1016.1
20260831090538 62 162 0.0 0.0 0.00 0.00 0.00 92 1016.1
20260831090029 63 177 0.0 0.0 0.00 0.00 0.00 92 1016.1
20260831085524 63 166 0.0 0.0 0.00 0.00 0.00 93 1016.0
20260831085019 63 173 0.0 0.0 0.00 0.00 0.00 93 1016.1
20260831084515 63 157 0.0 0.0 0.00 0.00 0.00 93 1016.0
20260831084011 63 163 0.0 0.0 0.00 0.00 0.00 93 1016.3
20260831083511 63 163 0.0 0.0 0.00 0.00 0.00 92 1016.3
20260831083006 63 166 0.0 0.0 0.00 0.00 0.00 92 1016.4
20260831082500 63 172 0.0 0.0 0.00 0.00 0.00 92 1016.4
20260831081954 63 161 0.0 0.0 0.00 0.00 0.00 92 1016.2
20260831081450 63 162 0.0 0.0 0.00 0.00 0.00 92 1016.2
20260831080946 63 166 0.0 0.0 0.00 0.00 0.00 92 1016.2
20260831080441 63 168 0.0 0.0 0.00 0.00 0.00 92 1016.4
20260831075936 63 172 0.0 0.0 0.00 0.00 0.00 91 1016.1
20260831075431 63 161 0.0 0.0 0.00 0.00 0.00 91 1016.3
20260831074927 64 168 0.0 0.0 0.00 0.00 0.00 90 1016.1
20260831074421 64 156 0.0 0.0 0.00 0.00 0.00 90 1016.2
20260831073915 64 168 0.0 0.0 0.00 0.00 0.00 91 1015.9
20260831073415 64 165 0.0 1.0 0.00 0.00 0.00 90 1016.1
20260831072910 64 153 0.0 2.0 0.00 0.00 0.00 90 1015.9
20260831072405 64 308 2.0 3.0 0.00 0.00 0.00 90 1016.0
20260831071902 65 262 2.0 3.0 0.00 0.00 0.00 89 1016.1
20260831071400 65 220 1.0 2.0 0.00 0.00 0.00 88 1016.0
20260831070855 65 146 0.0 0.0 0.00 0.00 0.00 86 1016.1
20260831070354 66 167 0.0 1.0 0.00 0.00 0.00 86 1016.0
20260831065854 66 151 0.0 0.0 0.00 0.00 0.00 85 1016.1
20260831065351 66 151 0.0 0.0 0.00 0.00 0.00 85 1015.9
20260831064847 66 182 0.0 1.0 0.00 0.00 0.00 84 1016.0
20260831064342 67 259 2.0 2.0 0.00 0.00 0.00 84 1016.1
20260831063837 67 171 0.0 1.0 0.00 0.00 0.00 84 1015.8
20260831063332 67 274 2.0 2.0 0.00 0.00 0.00 83 1016.1
20260831062827 67 188 0.0 0.0 0.00 0.00 0.00 84 1016.0
20260831062322 66 151 0.0 0.0 0.00 0.00 0.00 85 1015.9
20260831061820 66 147 0.0 0.0 0.00 0.00 0.00 85 1015.8
20260831061314 66 148 0.0 0.0 0.00 0.00 0.00 85 1016.2
20260831060810 66 148 0.0 0.0 0.00 0.00 0.00 85 1016.1
20260831060305 66 131 0.0 0.0 0.00 0.00 0.00 85 1015.9
20260831055804 66 142 0.0 0.0 0.00 0.00 0.00 84 1015.8
20260831055259 66 158 0.0 0.0 0.00 0.00 0.00 85 1016.0
20260831054754 66 157 0.0 0.0 0.00 0.00 0.00 85 1016.0
20260831054249 66 158 0.0 0.0 0.00 0.00 0.00 85 1016.2
20260831053748 66 159 0.0 0.0 0.00 0.00 0.00 85 1016.1
20260831053247 66 163 0.0 0.0 0.00 0.00 0.00 85 1016.1
20260831052742 66 155 0.0 0.0 0.00 0.00 0.00 85 1016.0
20260831052241 66 155 0.0 0.0 0.00 0.00 0.00 84 1016.1
20260831051738 66 156 0.0 0.0 0.00 0.00 0.00 85 1016.4
20260831051232 66 162 0.0 0.0 0.00 0.00 0.00 85 1016.2
20260831050727 66 157 0.0 0.0 0.00 0.00 0.00 84 1016.5
20260831050225 66 157 0.0 0.0 0.00 0.00 0.00 83 1016.2
20260831045720 66 160 0.0 0.0 0.00 0.00 0.00 83 1016.4
20260831045215 67 166 0.0 0.0 0.00 0.00 0.00 82 1016.2
20260831044710 67 153 0.0 0.0 0.00 0.00 0.00 82 1016.0
20260831044205 67 159 0.0 0.0 0.00 0.00 0.00 82 1016.2
20260831043701 67 153 0.0 0.0 0.00 0.00 0.00 82 1016.1
20260831043156 67 153 0.0 0.0 0.00 0.00 0.00 81 1016.1
20260831042655 67 164 0.0 0.0 0.00 0.00 0.00 81 1016.1
20260831042150 67 191 0.0 0.0 0.00 0.00 0.00 81 1016.1
20260831041645 67 159 0.0 0.0 0.00 0.00 0.00 80 1016.0
20260831041144 67 155 0.0 0.0 0.00 0.00 0.00 80 1016.1
20260831040640 67 155 0.0 0.0 0.00 0.00 0.00 80 1016.1
20260831040138 68 157 0.0 0.0 0.00 0.00 0.00 79 1016.0
20260831035638 68 171 0.0 0.0 0.00 0.00 0.00 78 1015.9
20260831035137 68 167 0.0 0.0 0.00 0.00 0.00 78 1015.9
20260831034636 68 177 0.0 0.0 0.00 0.00 0.00 78 1015.8
20260831034132 69 153 0.0 0.0 0.00 0.00 0.00 77 1015.6
20260831033628 69 150 0.0 0.0 0.00 0.00 0.00 77 1015.7
20260831033123 69 147 0.0 0.0 0.00 0.00 0.00 76 1015.5
20260831032623 69 162 0.0 0.0 0.00 0.00 0.00 75 1015.5
20260831032118 69 163 0.0 0.0 0.00 0.00 0.00 75 1015.2
20260831031613 70 166 0.0 0.0 0.00 0.00 0.00 75 1015.5
20260831031112 70 156 0.0 0.0 0.00 0.00 0.00 74 1015.0
20260831030611 70 174 0.0 0.0 0.00 0.00 0.00 73 1015.3
20260831030110 70 164 0.0 0.0 0.00 0.00 0.00 72 1015.0
20260831025609 71 157 0.0 0.0 0.00 0.00 0.00 71 1014.9
20260831025104 71 148 0.0 0.0 0.00 0.00 0.00 71 1015.0
20260831024600 71 144 0.0 0.0 0.00 0.00 0.00 70 1015.0
20260831024058 72 152 0.0 2.0 0.00 0.00 0.00 70 1014.9
20260831023557 72 128 0.0 0.0 0.00 0.00 0.00 70 1014.8
20260831023056 72 141 0.0 0.0 0.00 0.00 0.00 69 1014.8
20260831022551 73 134 0.0 0.0 0.00 0.00 0.00 68 1014.9
20260831022046 73 134 0.0 1.0 0.00 0.00 0.00 68 1015.0
20260831021544 73 100 0.0 1.0 0.00 0.00 0.00 68 1014.7
20260831021036 74 151 1.0 2.0 0.00 0.00 0.00 67 1014.7
20260831020531 74 164 0.0 1.0 0.00 0.00 0.00 67 1015.1
20260831020025 75 135 0.0 2.0 0.00 0.00 0.00 67 1015.1
20260831015521 75 148 0.0 1.0 0.00 0.00 0.00 66 1014.9
20260831015016 75 105 1.0 2.0 0.00 0.00 0.00 66 1015.0
20260831014510 75 267 0.0 1.0 0.00 0.00 0.00 65 1014.8
20260831014006 76 143 0.0 0.0 0.00 0.00 0.00 65 1014.9
20260831013502 76 83 1.0 2.0 0.00 0.00 0.00 65 1014.9
20260831012955 77 262 0.0 1.0 0.00 0.00 0.00 64 1014.9
20260831012450 77 135 1.0 1.0 0.00 0.00 0.00 63 1015.1
20260831011944 78 161 0.0 0.0 0.00 0.00 0.00 62 1015.0
20260831011439 78 131 1.0 2.0 0.00 0.00 0.00 62 1015.0
20260831010936 78 156 1.0 2.0 0.00 0.00 0.00 62 1014.9
20260831010435 79 173 1.0 3.0 0.00 0.00 0.00 61 1015.1
20260831005931 79 155 1.0 2.0 0.00 0.00 0.00 62 1015.0
20260831005426 79 158 0.0 3.0 0.00 0.00 0.00 62 1015.1
20260831004926 79 275 4.0 4.0 0.00 0.00 0.00 62 1015.1
20260831004423 79 183 2.0 3.0 0.00 0.00 0.00 62 1014.8
20260831003918 79 342 4.0 4.0 0.00 0.00 0.00 63 1014.8
20260831003413 79 115 1.0 3.0 0.00 0.00 0.00 64 1014.8
20260831002908 80 115 0.0 2.0 0.00 0.00 0.00 64 1015.0
20260831002407 81 197 2.0 4.0 0.00 0.00 0.00 62 1014.8
20260831001902 81 292 0.0 7.0 0.00 0.00 0.00 61 1014.8
20260831001357 82 274 3.0 4.0 0.00 0.00 0.00 60 1014.8
20260831000855 82 168 2.0 6.0 0.00 0.00 0.00 60 1014.7
20260831000350 82 259 2.0 7.0 0.00 0.00 0.00 60 1014.6
20260830235848 82 48 1.0 2.0 0.00 0.00 0.00 60 1014.6
20260830235343 83 201 1.0 3.0 0.00 0.00 0.00 60 1014.9
20260830234839 83 32 1.0 2.0 0.00 0.00 0.00 59 1014.8
20260830234334 84 207 3.0 6.0 0.00 0.00 0.00 59 1014.9
20260830233830 84 128 2.0 4.0 0.00 0.00 0.00 59 1014.6
20260830233325 85 227 1.0 3.0 0.00 0.00 0.00 57 1014.5
20260830232821 85 327 1.0 3.0 0.00 0.00 0.00 57 1015.0
20260830232316 86 63 1.0 2.0 0.00 0.00 0.00 56 1014.7
20260830231812 86 147 1.0 3.0 0.00 0.00 0.00 57 1015.0
20260830231307 86 19 1.0 4.0 0.00 0.00 0.00 57 1014.8